Observations for Trim Market St
| Time | AQI | Temp °C | Hum % | Pres Pa | CO μg/m³ | H₂S μg/m³ | NO μg/m³ | NO₂ μg/m³ | O₃ μg/m³ | SO₂ μg/m³ | PM1 μg/m³ | PM2.5 μg/m³ | PM10 μg/m³ |
|---|---|---|---|---|---|---|---|---|---|---|---|---|---|
| Tuesday 14 July 2026 | |||||||||||||
| 17:09 | 1 | 31.7 | 25 | 66,221 | 0 | 2.5 | 0 | 0.78 | 43.92 | 0 | 2.14 | 6.83 | 7.51 |
| 17:08 | 1 | 31.9 | 25 | 66,234 | 0 | 0 | 0 | 1.84 | 35.88 | 0 | 1.43 | 5.73 | 6.31 |
| 17:07 | 1 | 32.1 | 25 | 66,250 | 0 | 1.72 | 0 | 1.71 | 47.45 | 0 | 2.85 | 7.4 | 9.32 |
| 17:06 | 1 | 32.2 | 24 | 66,266 | 0 | 0 | 0 | 0.22 | 43.09 | 0 | 3.56 | 7.41 | 7.52 |
| 17:04 | 1 | 32.4 | 24 | 66,290 | 0 | 0 | 0 | 0 | 39.98 | 0 | 2.14 | 6.31 | 8.42 |
| 17:02 | 1 | 32.6 | 24 | 66,313 | 0 | 0 | 0 | 0 | 39.68 | 0 | 2.85 | 6.86 | 7.52 |
| 16:57 | 1 | 33 | 24 | 66,327 | 0 | 0 | 0 | 0 | 35.1 | 0 | 2.85 | 6.86 | 7.55 |
| 16:52 | 1 | 33.2 | 24 | 66,325 | 0 | 0 | 0 | 0 | 38.85 | 0 | 0.71 | 5.75 | 6.33 |
| 16:50 | 1 | 33.3 | 24 | 66,331 | 0 | 0 | 0 | 0 | 40.32 | 0 | 2.14 | 6.3 | 6.94 |
| 16:48 | 1 | 33.4 | 25 | 66,359 | 0 | 0 | 0 | 0 | 47.8 | 0 | 2.85 | 6.84 | 7.52 |
| 16:47 | 1 | 33.5 | 25 | 66,366 | 0 | 0 | 0 | 0 | 37.97 | 0 | 3.56 | 6.85 | 7.53 |
| 16:43 | 1 | 33.6 | 25 | 66,394 | 0 | 0 | 0 | 0 | 35.69 | 0 | 2.14 | 7.4 | 7.52 |
| 16:42 | 1 | 33.7 | 25 | 66,376 | 0 | 0 | 0 | 0.38 | 37.55 | 0 | 4.28 | 7.95 | 8.42 |
| 16:41 | 1 | 33.7 | 25 | 66,386 | 0 | 0 | 0 | 0 | 37.4 | 0 | 3.56 | 7.4 | 8.42 |
| 16:40 | 1 | 33.7 | 25 | 66,370 | 0 | 0 | 0 | 0 | 30.97 | 0 | 2.85 | 6.85 | 7.52 |
| 16:39 | 1 | 33.8 | 25 | 66,376 | 0 | 0 | 0 | 0 | 33.99 | 0 | 2.14 | 6.29 | 6.92 |
| 16:38 | 1 | 33.8 | 25 | 66,384 | 0 | 0 | 0 | 0 | 31.4 | 0 | 2.14 | 7.39 | 7.52 |
| 16:37 | 1 | 33.8 | 25 | 66,390 | 0 | 0 | 0 | 0.74 | 37.14 | 0 | 2.14 | 6.29 | 6.92 |
| 16:36 | 1 | 33.9 | 25 | 66,368 | 0 | 0 | 0 | 0 | 36.34 | 0 | 2.85 | 6.29 | 6.92 |
| 16:35 | 1 | 33.9 | 25 | 66,370 | 0 | 0 | 0 | 0 | 26.2 | 0 | 2.85 | 6.29 | 6.92 |